Location: Étang Rond
(42.7927°N, 1.0661°E)
Time: 09:02:08
(UTC+00:00)

Tiangong - Visible Passes

Search period start: 21 January 2026 00:00
Search period end: 31 January 2026 00:00
Orbit: 378 x 393 km, 41.5° (Epoch: 20 January)

Date Brightness Start Highest point End Pass type
(mag) Time Alt. Az. Time Alt. Az. Time Alt. Az.
21 Jan -1.3 05:27:42 43° S 05:27:49 43° SSE 05:30:53 10° E visible
22 Jan 1.5 04:31:09 11° E 04:31:09 11° E 04:31:17 10° E visible
22 Jan -2.0 06:03:23 25° WSW 06:05:03 68° S 06:08:14 10° E visible
23 Jan -0.4 05:06:41 33° ESE 05:06:41 33° ESE 05:08:39 10° E visible
23 Jan -1.8 06:39:07 10° W 06:42:16 64° S 06:45:26 10° ESE visible
24 Jan -2.1 05:42:06 54° WSW 05:42:39 70° S 05:45:50 10° E visible
25 Jan 0.8 04:45:13 17° E 04:45:13 17° E 04:46:07 10° E visible
25 Jan -1.6 06:17:25 17° W 06:19:41 51° SSW 06:22:47 10° ESE visible
26 Jan -1.5 05:20:28 52° SE 05:20:28 52° SE 05:23:05 10° ESE visible
27 Jan -1.2 05:55:39 27° WSW 05:56:46 37° SSW 05:59:43 10° SE visible
28 Jan 0.2 04:58:35 23° SE 04:58:35 23° SE 05:00:00 10° ESE visible
28 Jan 0.0 06:31:12 10° WSW 06:33:19 17° SSW 06:35:26 10° SSE visible
29 Jan -0.6 05:33:42 25° SSW 05:33:42 25° SSW 05:36:10 10° SE visible
30 Jan 0.4 06:09:35 10° SW 06:09:48 10° SSW 06:10:01 10° SSW visible
